loading
|

MIDAS 3 DEB, 196

Orbit data source: Space-Track

MIDAS 3 DEB, 196 is space debris originally from a launch on Wed, 12 Jul 1961 UTC launched from the Air Force Western Test Range (AFWTR). Debris objects in space refer to the collection of defunct objects orbiting the Earth. Examples of debris include non-operational satellites, rocket bodies, and fragments generated from explosions, collisions, or faulty payload assembly.

Loading next visibility...
Loading greatness...
MIDAS 3 DEB details
Identifier
196, 1961-018D
Orbit
Active
Last TLE update1 day ago
Origin
Flag of USUSAF SSD (US)
ManufacturerUnknown
Mission statusUnknown
MissionUnknown
Bus & MotorUnknown
Mass~10 kg wet, ~10 kg dry
Launch date (UTC)
1961-07-12 (63 years ago)
Launch vehicleUnknown
Launch site
Air Force Western Test Range (AFWTR)
Object type
Payload
Rocket body
Debris
Radar Cross SectionMedium (>0.1 m² and <1 m²)

Expand to show TLE details & history

TLE from 1 day ago
0 MIDAS 3 DEB
1 00196U 61018D   24258.19759454 -.00000027  00000-0 -10143-1 0  9998
2 00196  91.1069 176.1268 0114514 301.8838  57.0934  8.89686418 51644
Epoch: 2024-09-14T04:44Z
Definitive object data (Epoch: 2024-09-14T04:44:32.168Z)
Latitude0.00005°
Longitude111.334°
Altitude3,401.889 km
Speed6.404 km/s
True Right ascension11h 44m 30s
True Declination0° 00' 00"
Sunlit
Object was in daylight at TLE epoch
Predictive object data (real-time)
Latitude67.85411°
Longitude-65.91148°
Altitude3,583.061 km
Speed6.296 km/s
Apparent Right ascension07h 33m 30s
Apparent Declination69° 15' 17"
Sunlit
Object is in daylight
Predictive observer data (real-time)
Local Sidereal Time22:30:50
Azimuth15.714° NNE
Elevation23.937°
Doppler factor1
Orbital elements
Apogee3,570.352 km
Perigee3,345.083 km
Semi-major axis9,835.854 km
Eccentricity0.0114514
Inclination91.1069°
RAAN176.1268°
Arg. of periapsis301.8838°
True anomaly58.20366°
Mean anomaly57.0934°
Eccentric anomaly57.64767°
Mean motion2.22497 °/min
BSTAR-0.010143
Period161.8 mins
No data available

MIDAS 3 DEB Visibility forecast

Observer location: 39.9160978°, -105.1181434

MIDAS 3 DEB is not visible in the next 10 days
Span
Click to sort rows by Start time (UTC) header in descending order
Start Az.
Max El. time (UTC)
Max El. Az.
Max El.
End time (UTC)
End Az.